[[{"header":{"parameterUnit":"m.s-1","parameterCategory":1,"la1":30.2991,"la2":30.254,"lo1":-89.0895,"lo2":-89.0444,"dy":0.0017,"dx":0.0017,"nx":28,"ny":28,"refTime":"2024-09-28T03:00:00:Z","depth":0,"parameterNumber":2,"parameterNumberName":"U-component_of_WINDS"},"data":[0,0,0,0,0,0,0,0,0,0,0,0,0,0,0,0,0,0,0,0,0,0,0,0,0,0,0,0,0,0,0,0,0,0,0,0,0,0,0,0,0,0,0,0,0,0,0,0,0,0,0,0,0,0,0,0,0,0,4.1841,4.1842,0,4.1962,4.1964,4.1965,4.1923,4.192,4.1917,4.1915,4.2044,4.205,4.2056,0,0,0,0,0,0,0,0,0,0,0,0,0,4.1577,4.1582,4.1841,4.1842,4.1844,4.1962,4.1964,4.1965,4.1923,4.192,4.1917,4.1913,4.2042,4.205,4.2057,0,0,0,0,0,0,0,0,0,0,0,0,0,4.1695,4.1584,4.1841,4.1837,4.1838,4.1962,4.1964,4.1966,4.1924,4.192,4.1916,4.1912,4.204,4.2049,4.2058,4.2194,0,0,4.2085,4.2089,0,0,0,0,0,0,0,0,4.1688,4.1705,4.1836,4.1837,4.1839,4.1923,4.1918,4.2043,4.1925,4.1891,4.1915,4.191,4.2008,4.2019,4.2051,4.22,4.2206,4.2086,4.2091,4.2095,4.2098,0,0,0,0,0,0,0,4.168,4.1699,4.1889,4.1838,4.184,4.1831,4.1843,4.1942,4.1971,4.1894,4.1891,4.1906,4.2008,4.2042,4.2054,4.2208,4.2086,4.2094,4.2099,4.2103,4.2476,4.248,0,0,0,0,0,0,4.1671,4.1693,4.1885,4.1893,4.1752,4.1839,4.1852,4.19,4.197,4.1976,4.1909,4.1903,4.2029,4.2043,4.2058,4.2222,4.2095,4.2103,4.2109,4.2471,4.2477,4.2482,0,0,0,0,0,0,4.1665,4.1688,4.188,4.1792,4.1816,4.1848,4.1902,4.1905,4.1939,4.1981,4.1987,4.1939,4.2026,4.2045,4.216,4.2226,4.2108,4.2116,4.2466,4.2473,4.2479,4.2552,0,0,0,0,0,0,4.1658,4.1686,4.1737,4.1793,4.182,4.1979,4.1906,4.191,4.1954,4.1948,4.201,4.2017,4.2025,4.2147,4.2169,4.2236,4.2123,4.246,4.2469,4.2477,4.2544,4.256,4.2575,0,0,0,0,0,4.1648,4.1754,4.174,4.1764,4.1885,4.1983,4.1999,4.2004,4.196,4.2012,4.2039,4.2015,4.2215,4.2159,4.2184,4.2255,4.2456,4.2466,4.2476,4.2537,4.2557,4.2574,0,0,0,0,0,0,4.1707,4.1761,4.1746,4.1873,4.1924,4.1976,4.2041,4.2025,4.209,4.2082,4.2087,4.2102,4.222,4.2249,4.2185,4.2391,4.2329,4.2345,4.2367,4.2387,4.2402,4.2392,4.213,0,0,0,0,0,4.1734,4.1808,4.1852,4.196,4.1986,4.201,4.2053,4.2052,4.2105,4.2127,4.2162,4.2216,4.2291,4.2341,4.2412,4.2548,4.2561,4.2609,4.2624,4.2637,4.265,4.2724,4.2746,4.2515,4.2515,4.2515,0,0,4.1792,4.1831,4.1878,4.1973,4.2012,4.2089,4.2028,4.2113,4.2171,4.214,4.225,4.2278,4.2339,4.2465,4.2522,4.2493,4.2717,4.265,4.2659,4.2666,4.2737,4.2759,4.2778,4.2522,4.2521,4.252,0,0,4.1937,4.1974,4.2067,4.2107,4.2166,4.2181,4.2204,4.2259,4.2275,4.2386,4.2364,4.2435,4.2564,4.2608,4.2647,4.2809,4.279,4.2832,4.2913,4.2985,4.3003,4.3019,4.3077,4.3097,4.2845,4.2846,4.2846,0,4.2002,4.2116,4.2118,4.2204,4.2247,4.2221,4.2317,4.2356,4.2437,4.2468,4.2433,4.2594,4.2634,4.2769,4.2808,4.2841,4.2868,4.2825,4.3,4.3016,4.3031,4.3086,4.3108,4.285,4.285,4.2849,4.2849,0,4.2193,4.2273,4.2342,4.2418,4.2468,4.2559,4.2576,4.2627,4.2623,4.2642,4.2755,4.2801,4.2881,4.2913,4.2911,4.3049,4.3029,4.2998,4.2936,4.3058,4.311,4.3131,4.2857,4.2856,4.2854,4.2853,0,0,4.2378,4.2453,4.2479,4.2513,4.2576,4.2639,4.2729,4.2805,4.285,4.2906,4.2982,4.3092,4.3063,4.3108,4.311,4.3173,4.3299,4.3134,4.3136,4.3163,4.3455,4.3478,4.3502,4.3286,4.329,4.3294,4.3449,0,4.2528,4.2683,4.2688,4.2831,4.2905,4.2882,4.2961,4.3009,4.303,4.3097,4.312,4.3198,4.3154,4.318,4.3242,4.327,4.3357,4.3259,4.3358,4.3362,4.3343,4.3529,4.3554,4.3698,4.347,4.3473,4.3476,0,4.2723,4.2783,4.2934,4.2986,4.3018,4.3088,4.3158,4.3223,4.3278,4.3288,4.3338,4.3331,4.3424,4.336,4.3489,4.3422,4.3464,4.3484,4.3489,4.3499,4.3426,4.3543,4.3745,4.3766,4.3508,4.3505,4.3503,0,4.2842,4.2962,4.3067,4.3097,4.3161,4.3211,4.3241,4.3291,4.3337,4.34,4.343,4.3503,4.3543,4.3601,4.3614,4.3566,4.3744,4.3681,4.3756,4.3756,4.3795,4.3792,4.4005,4.3822,4.3822,4.3821,4.3821,0,4.3008,4.3101,4.3121,4.3186,4.329,4.3295,4.3398,4.3424,4.3469,4.354,4.3525,4.3592,4.3605,4.3676,4.3687,4.3793,4.3811,4.3823,4.3825,4.3824,4.3823,4.3851,4.3841,4.3827,4.3826,4.3825,4.3824,0,4.3159,4.3176,4.3289,4.334,4.3355,4.343,4.3474,4.3537,4.3556,4.3645,4.3667,4.3697,4.3779,4.3797,4.3896,4.3903,4.4028,4.4021,4.4009,4.4008,4.4083,4.4075,4.4322,4.4354,4.415,4.4151,4.4153,0,4.3264,4.3334,4.3393,4.3438,4.3469,4.3543,4.3589,4.3597,4.3646,4.3714,4.3769,4.3848,4.3913,4.4045,4.4077,4.4152,4.4146,4.4227,4.4157,4.4154,4.4147,4.4142,4.4149,4.424,4.4242,4.4244,4.4245,0,4.3448,4.3453,4.3519,4.3589,4.3644,4.3699,4.3752,4.3791,4.3806,4.3863,4.3945,4.3995,4.4094,4.4174,4.4249,4.4281,4.4267,4.4267,4.4289,4.4288,4.4278,4.4285,4.4045,4.4261,4.426,4.4259,4.4258,4.4257,4.3579,4.364,4.3691,4.3765,4.3806,4.3855,4.3917,4.3943,4.4011,4.4091,4.4092,4.4182,4.4236,4.4335,4.4372,4.4444,4.4419,4.445,4.4458,4.4465,4.4472,4.4267,4.4457,4.4457,4.4457,4.4456,4.4456,0,4.3762,4.3793,4.3861,4.3935,4.3994,4.3973,4.4031,4.4082,4.4161,4.4212,4.4275,4.437,4.4447,4.4485,4.4562,4.4612,4.4607,4.4632,4.4628,4.4636,4.449,4.4463,4.4634,4.4634,4.4634,4.4634,4.4634,4.4634,4.3864,4.3967,4.3978,4.4101,4.4132,4.4219,4.4253,4.43,4.434,4.4446,4.451,4.4533,4.4579,4.4659,4.4729,4.4739,4.4768,4.4796,4.4802,4.4664,4.4646,4.4629,4.4604,4.4802,4.4802,4.4942,4.4943,4.4944]},{"header":{"parameterUnit":"m.s-1","parameterCategory":1,"la1":30.2991,"la2":30.254,"lo1":-89.0895,"lo2":-89.0444,"dy":0.0017,"dx":0.0017,"nx":28,"ny":28,"refTime":"2024-09-28T03:00:00:Z","depth":0,"parameterNumber":3,"parameterNumberName":"V-component_of_WINDS"},"data":[0,0,0,0,0,0,0,0,0,0,0,0,0,0,0,0,0,0,0,0,0,0,0,0,0,0,0,0,0,0,0,0,0,0,0,0,0,0,0,0,0,0,0,0,0,0,0,0,0,0,0,0,0,0,0,0,0,0,2.2731,2.2732,0,2.2753,2.2753,2.2754,2.2725,2.2724,2.2723,2.2722,2.2744,2.2745,2.2747,0,0,0,0,0,0,0,0,0,0,0,0,0,2.2665,2.2666,2.2731,2.2732,2.2732,2.2753,2.2753,2.2754,2.2725,2.2724,2.2723,2.2722,2.2743,2.2745,2.2747,0,0,0,0,0,0,0,0,0,0,0,0,0,2.2691,2.2666,2.2731,2.272,2.272,2.2753,2.2753,2.2754,2.2726,2.2724,2.2722,2.2721,2.2743,2.2745,2.2747,2.2793,0,0,2.2754,2.2755,0,0,0,0,0,0,0,0,2.2689,2.2693,2.2722,2.2721,2.272,2.2735,2.2738,2.2767,2.2726,2.2723,2.2722,2.272,2.2742,2.2744,2.2752,2.2794,2.2795,2.2755,2.2756,2.2757,2.2758,0,0,0,0,0,0,0,2.2687,2.2692,2.274,2.2722,2.2721,2.2714,2.2716,2.2743,2.2741,2.2723,2.2721,2.2724,2.2741,2.275,2.2752,2.2795,2.2755,2.2757,2.2758,2.2759,2.2875,2.2877,0,0,0,0,0,0,2.2687,2.2691,2.2739,2.2741,2.2701,2.2717,2.2719,2.2732,2.2741,2.2741,2.2726,2.2723,2.2747,2.275,2.2753,2.2807,2.2757,2.2759,2.2761,2.2874,2.2876,2.2877,0,0,0,0,0,0,2.2686,2.2692,2.2738,2.2715,2.2721,2.2719,2.2734,2.2733,2.2741,2.2742,2.2742,2.2735,2.2745,2.275,2.2783,2.2807,2.276,2.2762,2.2872,2.2874,2.2876,2.2915,0,0,0,0,0,0,2.2684,2.2691,2.2709,2.2716,2.2722,2.2768,2.2736,2.2735,2.2745,2.2742,2.2751,2.2751,2.2745,2.278,2.2785,2.2809,2.2764,2.2869,2.2873,2.2876,2.2911,2.2918,2.2924,0,0,0,0,0,2.2682,2.2718,2.271,2.2716,2.2744,2.277,2.2773,2.2766,2.2747,2.2765,2.2766,2.275,2.2803,2.2783,2.2789,2.2815,2.2868,2.2872,2.2875,2.2908,2.2917,2.2924,0,0,0,0,0,0,2.2714,2.2719,2.2709,2.275,2.276,2.2765,2.2787,2.2775,2.279,2.2786,2.2776,2.2778,2.2814,2.2818,2.2795,2.2859,2.2833,2.2838,2.2855,2.2863,2.287,2.2868,2.2766,0,0,0,0,0,2.2725,2.2747,2.275,2.2785,2.2791,2.2788,2.2799,2.2792,2.2802,2.2806,2.2809,2.282,2.2838,2.2851,2.2869,2.2911,2.2913,2.2932,2.2938,2.2943,2.2948,2.2971,2.298,2.289,2.289,2.289,0,0,2.275,2.2755,2.2769,2.2792,2.2799,2.2821,2.2792,2.2816,2.2832,2.281,2.2842,2.2845,2.2855,2.2894,2.2911,2.2897,2.2973,2.2948,2.2952,2.2954,2.2976,2.2984,2.2992,2.2893,2.2892,2.2892,0,0,2.2806,2.2812,2.2842,2.285,2.2861,2.2859,2.2866,2.2873,2.2874,2.2906,2.289,2.2909,2.2942,2.295,2.2959,2.3018,2.3005,2.3024,2.3058,2.308,2.3087,2.3094,2.3115,2.3123,2.3029,2.3029,2.3029,0,2.2834,2.2867,2.2859,2.2885,2.2895,2.2876,2.2906,2.2914,2.293,2.2938,2.2923,2.2964,2.297,2.301,2.3024,2.3032,2.304,2.3023,2.3087,2.3093,2.3099,2.3119,2.3127,2.3031,2.3031,2.3031,2.303,0,2.2902,2.2925,2.2948,2.2965,2.2978,2.3006,2.3001,2.3015,2.3008,2.3007,2.304,2.3046,2.3065,2.3074,2.3067,2.3113,2.3105,2.3089,2.3062,2.311,2.3129,2.3136,2.3034,2.3034,2.3033,2.3032,0,0,2.2978,2.299,2.2999,2.3006,2.3017,2.3035,2.3062,2.308,2.3093,2.3105,2.3127,2.3155,2.3141,2.315,2.3144,2.3164,2.3211,2.3145,2.3145,2.3157,2.3263,2.3275,2.3284,2.3202,2.3203,2.3204,2.3262,0,2.3034,2.3082,2.3075,2.312,2.3142,2.3124,2.3148,2.3157,2.3158,2.3176,2.3176,2.3196,2.3175,2.3181,2.32,2.3201,2.3232,2.3197,2.3223,2.3224,2.3221,2.3294,2.3306,2.336,2.3269,2.327,2.3271,0,2.3106,2.3121,2.3168,2.3177,2.3185,2.3207,2.3223,2.3241,2.3251,2.325,2.3261,2.3251,2.3278,2.3251,2.3288,2.3264,2.3274,2.3277,2.3278,2.3281,2.325,2.3298,2.3377,2.3386,2.3283,2.3282,2.3281,0,2.3157,2.3189,2.3222,2.3228,2.3239,2.3254,2.3259,2.3268,2.3279,2.3294,2.3301,2.3318,2.3328,2.3341,2.3336,2.3317,2.3375,2.3347,2.3374,2.3375,2.3387,2.3387,2.347,2.3394,2.3394,2.3394,2.3394,0,2.322,2.325,2.3245,2.3265,2.3298,2.329,2.3323,2.3325,2.3333,2.3354,2.334,2.3359,2.3351,2.337,2.3366,2.3397,2.3402,2.3401,2.34,2.3403,2.3403,2.3409,2.3405,2.3396,2.3395,2.3395,2.3395,0,2.3282,2.328,2.3315,2.3322,2.3324,2.3348,2.3354,2.3373,2.3373,2.3398,2.3404,2.3403,2.3425,2.3421,2.3444,2.3442,2.3481,2.3475,2.3478,2.3477,2.3504,2.3502,2.3594,2.3606,2.3523,2.3524,2.3524,0,2.3323,2.3345,2.3355,2.3368,2.3374,2.3395,2.3407,2.34,2.3413,2.3427,2.3444,2.3464,2.348,2.3515,2.3516,2.3534,2.3529,2.356,2.3531,2.3533,2.3529,2.3528,2.353,2.3565,2.3566,2.3567,2.3568,0,2.3395,2.3393,2.3411,2.3428,2.3443,2.3457,2.3469,2.348,2.3474,2.349,2.3512,2.3524,2.3548,2.3569,2.3586,2.359,2.3578,2.3577,2.3584,2.3587,2.3588,2.3588,2.3493,2.3575,2.3574,2.3574,2.3573,2.3573,2.3447,2.3467,2.3477,2.3497,2.3506,2.3518,2.3536,2.3538,2.3556,2.3576,2.3571,2.3596,2.3605,2.3627,2.3634,2.3653,2.3641,2.3652,2.3655,2.3657,2.3661,2.3585,2.3656,2.3656,2.3656,2.3655,2.3655,0,2.3518,2.3524,2.3543,2.3561,2.3577,2.3565,2.3578,2.3592,2.3615,2.3625,2.3641,2.3666,2.3686,2.3689,2.3708,2.3723,2.3718,2.3728,2.3727,2.3728,2.367,2.3662,2.3732,2.3732,2.3732,2.3732,2.3732,2.3732,2.3557,2.359,2.3589,2.3626,2.3631,2.3656,2.3664,2.3675,2.3683,2.3713,2.3729,2.3731,2.3739,2.3758,2.3775,2.3776,2.3783,2.3796,2.3794,2.374,2.3732,2.3725,2.3717,2.3797,2.3797,2.385,2.3851,2.3851]}]]